| time (UTC) | temp F | wind direction | speed knots | gust knots | rain 1hr in | rain 24hr in | rain mn in | humidity % | barometer mb |
| 20260906103408 | 69 | 97 | 0.9 | 1.7 | 0.00 | 0.00 | 0.00 | 96 | 1018.0 |
| 20260906102908 | 69 | 192 | 0.9 | 1.7 | 0.00 | 0.00 | 0.00 | 96 | 1018.0 |
| 20260906102408 | 69 | 108 | 0.0 | 1.7 | 0.00 | 0.00 | 0.00 | 96 | 1018.1 |
| 20260906101908 | 69 | 142 | 0.9 | 1.7 | 0.00 | 0.00 | 0.00 | 95 | 1018.1 |
| 20260906101409 | 69 | 88 | 1.7 | 1.7 | 0.00 | 0.00 | 0.00 | 95 | 1018.1 |
| 20260906100908 | 69 | 102 | 0.9 | 1.7 | 0.00 | 0.00 | 0.00 | 95 | 1018.1 |
| 20260906100408 | 69 | 84 | 1.7 | 3.5 | 0.00 | 0.00 | 0.00 | 95 | 1018.2 |
| 20260906095909 | 69 | 140 | 0.9 | 1.7 | 0.00 | 0.00 | 0.00 | 95 | 1018.1 |
| 20260906095409 | 69 | 127 | 0.9 | 2.6 | 0.00 | 0.00 | 0.00 | 96 | 1018.0 |
| 20260906094908 | 69 | 80 | 1.7 | 3.5 | 0.00 | 0.00 | 0.00 | 96 | 1017.9 |
| 20260906094409 | 69 | 85 | 0.0 | 0.9 | 0.00 | 0.00 | 0.00 | 96 | 1017.8 |
| 20260906093908 | 69 | 189 | 0.9 | 1.7 | 0.00 | 0.00 | 0.00 | 96 | 1017.6 |
| 20260906093410 | 69 | 181 | 0.9 | 1.7 | 0.00 | 0.00 | 0.00 | 96 | 1017.5 |
| 20260906092908 | 69 | 183 | 0.0 | 0.9 | 0.00 | 0.00 | 0.00 | 96 | 1017.4 |
| 20260906092408 | 69 | 55 | 0.0 | 0.9 | 0.00 | 0.00 | 0.00 | 96 | 1017.3 |
| 20260906091908 | 69 | 80 | 1.7 | 3.5 | 0.00 | 0.00 | 0.00 | 96 | 1017.2 |
| 20260906091408 | 69 | 74 | 1.7 | 3.5 | 0.00 | 0.00 | 0.00 | 96 | 1017.1 |
| 20260906090908 | 69 | 123 | 0.9 | 2.6 | 0.00 | 0.00 | 0.00 | 95 | 1017.1 |
| 20260906090409 | 69 | 123 | 0.9 | 1.7 | 0.00 | 0.00 | 0.00 | 95 | 1017.0 |
| 20260906085909 | 69 | 97 | 2.6 | 3.5 | 0.00 | 0.00 | 0.00 | 95 | 1017.0 |
| 20260906085408 | 69 | 142 | 0.9 | 3.5 | 0.00 | 0.00 | 0.00 | 95 | 1017.0 |
| 20260906084908 | 69 | 119 | 1.7 | 4.3 | 0.00 | 0.00 | 0.00 | 95 | 1017.2 |
| 20260906084408 | 69 | 80 | 2.6 | 4.3 | 0.00 | 0.00 | 0.00 | 95 | 1017.2 |
| 20260906083908 | 69 | 86 | 2.6 | 4.3 | 0.00 | 0.00 | 0.00 | 95 | 1017.1 |
| 20260906083408 | 69 | 62 | 1.7 | 3.5 | 0.00 | 0.00 | 0.00 | 95 | 1017.2 |
| 20260906082908 | 69 | 27 | 0.0 | 0.9 | 0.00 | 0.00 | 0.00 | 95 | 1017.2 |
| 20260906082409 | 69 | 60 | 0.9 | 1.7 | 0.00 | 0.00 | 0.00 | 95 | 1017.2 |
| 20260906081909 | 69 | 45 | 0.9 | 1.7 | 0.00 | 0.00 | 0.00 | 95 | 1017.2 |
| 20260906081408 | 70 | 343 | 0.0 | 0.9 | 0.00 | 0.00 | 0.00 | 95 | 1017.2 |
| 20260906080908 | 70 | 164 | 0.0 | 0.9 | 0.00 | 0.00 | 0.00 | 94 | 1017.1 |
| 20260906080409 | 70 | 89 | 0.9 | 0.9 | 0.00 | 0.00 | 0.00 | 94 | 1017.1 |
| 20260906075908 | 70 | 83 | 2.6 | 4.3 | 0.00 | 0.00 | 0.00 | 94 | 1017.1 |
| 20260906075408 | 70 | 56 | 0.0 | 1.7 | 0.00 | 0.00 | 0.00 | 94 | 1017.1 |
| 20260906074908 | 70 | 104 | 2.6 | 5.2 | 0.00 | 0.00 | 0.00 | 94 | 1017.1 |
| 20260906074410 | 70 | 83 | 3.5 | 4.3 | 0.00 | 0.00 | 0.00 | 94 | 1017.1 |
| 20260906073908 | 70 | 101 | 1.7 | 2.6 | 0.00 | 0.00 | 0.00 | 94 | 1017.2 |
| 20260906073408 | 70 | 92 | 1.7 | 2.6 | 0.00 | 0.00 | 0.00 | 94 | 1017.2 |
| 20260906072908 | 70 | 90 | 1.7 | 3.5 | 0.00 | 0.00 | 0.00 | 95 | 1017.4 |
| 20260906072408 | 70 | 71 | 1.7 | 3.5 | 0.00 | 0.00 | 0.00 | 95 | 1017.4 |
| 20260906071908 | 70 | 64 | 0.9 | 3.5 | 0.00 | 0.00 | 0.00 | 95 | 1017.3 |
| 20260906071409 | 70 | 68 | 0.0 | 1.7 | 0.00 | 0.00 | 0.00 | 95 | 1017.3 |
| 20260906070909 | 70 | 58 | 0.9 | 1.7 | 0.00 | 0.00 | 0.00 | 95 | 1017.4 |
| 20260906070408 | 70 | 53 | 0.9 | 1.7 | 0.00 | 0.00 | 0.00 | 95 | 1017.5 |
| 20260906065908 | 70 | 26 | 0.9 | 1.7 | 0.00 | 0.00 | 0.00 | 95 | 1017.5 |
| 20260906065408 | 70 | 360 | 0.9 | 1.7 | 0.00 | 0.00 | 0.00 | 95 | 1017.6 |
| 20260906064908 | 70 | 87 | 0.9 | 1.7 | 0.00 | 0.00 | 0.00 | 95 | 1017.6 |
| 20260906064408 | 70 | 306 | 0.0 | 0.9 | 0.00 | 0.00 | 0.00 | 95 | 1017.6 |
| 20260906063910 | 70 | 49 | 0.0 | 0.9 | 0.00 | 0.00 | 0.00 | 95 | 1017.6 |
| 20260906063408 | 70 | 82 | 0.9 | 1.7 | 0.00 | 0.00 | 0.00 | 95 | 1017.7 |
| 20260906062908 | 70 | 348 | 0.9 | 1.7 | 0.00 | 0.00 | 0.00 | 95 | 1017.8 |
| 20260906062408 | 71 | 289 | 0.9 | 1.7 | 0.00 | 0.00 | 0.00 | 95 | 1017.8 |
| 20260906061909 | 71 | 316 | 0.9 | 1.7 | 0.00 | 0.00 | 0.00 | 95 | 1017.8 |
| 20260906061409 | 71 | 266 | 0.0 | 0.9 | 0.00 | 0.00 | 0.00 | 94 | 1017.7 |
| 20260906060909 | 71 | 358 | 0.0 | 1.7 | 0.00 | 0.00 | 0.00 | 94 | 1017.6 |
| 20260906060408 | 71 | 318 | 0.9 | 1.7 | 0.00 | 0.00 | 0.00 | 94 | 1017.7 |
| 20260906055908 | 71 | 79 | 0.0 | 1.7 | 0.00 | 0.00 | 0.00 | 94 | 1017.7 |
| 20260906055408 | 71 | 234 | 0.0 | 0.9 | 0.00 | 0.00 | 0.00 | 93 | 1017.8 |
| 20260906054908 | 71 | 312 | 0.9 | 1.7 | 0.00 | 0.00 | 0.00 | 93 | 1017.8 |
| 20260906054409 | 72 | 330 | 0.0 | 1.7 | 0.00 | 0.00 | 0.00 | 93 | 1017.7 |
| 20260906053908 | 72 | 267 | 0.0 | 0.9 | 0.00 | 0.00 | 0.00 | 92 | 1017.6 |
| 20260906053408 | 72 | 300 | 0.0 | 0.9 | 0.00 | 0.00 | 0.00 | 92 | 1017.6 |
| 20260906052908 | 72 | 309 | 0.0 | 0.9 | 0.00 | 0.00 | 0.00 | 91 | 1017.5 |
| 20260906052408 | 72 | 89 | 0.9 | 1.7 | 0.00 | 0.00 | 0.00 | 91 | 1017.4 |
| 20260906051910 | 73 | 50 | 0.0 | 0.9 | 0.00 | 0.00 | 0.00 | 91 | 1017.4 |
| 20260906051408 | 73 | 16 | 0.9 | 1.7 | 0.00 | 0.00 | 0.00 | 91 | 1017.4 |
| 20260906050909 | 73 | 212 | 0.0 | 0.0 | 0.00 | 0.00 | 0.00 | 91 | 1017.3 |
| 20260906050408 | 73 | 17 | 0.9 | 0.9 | 0.00 | 0.00 | 0.00 | 90 | 1017.2 |
| 20260906045908 | 73 | 7 | 0.9 | 1.7 | 0.00 | 0.00 | 0.00 | 90 | 1017.2 |
| 20260906045408 | 73 | 2 | 0.0 | 0.9 | 0.00 | 0.00 | 0.00 | 90 | 1017.2 |
| 20260906044909 | 73 | 75 | 1.7 | 2.6 | 0.00 | 0.00 | 0.00 | 89 | 1017.1 |
| 20260906044408 | 73 | 57 | 0.9 | 2.6 | 0.00 | 0.00 | 0.00 | 90 | 1017.2 |
| 20260906043908 | 73 | 78 | 1.7 | 2.6 | 0.00 | 0.00 | 0.00 | 90 | 1017.2 |
| 20260906043408 | 73 | 84 | 2.6 | 4.3 | 0.00 | 0.00 | 0.00 | 90 | 1017.2 |
| 20260906042908 | 74 | 94 | 1.7 | 3.5 | 0.00 | 0.00 | 0.00 | 90 | 1017.3 |
| 20260906042408 | 74 | 78 | 0.9 | 1.7 | 0.00 | 0.00 | 0.00 | 90 | 1017.3 |
| 20260906041908 | 74 | 40 | 0.9 | 1.7 | 0.00 | 0.00 | 0.00 | 91 | 1017.2 |
| 20260906041409 | 74 | 73 | 0.9 | 1.7 | 0.00 | 0.00 | 0.00 | 91 | 1017.2 |
| 20260906040908 | 74 | 149 | 0.0 | 2.6 | 0.00 | 0.00 | 0.00 | 91 | 1017.3 |
| 20260906040408 | 74 | 87 | 0.0 | 2.6 | 0.00 | 0.00 | 0.00 | 91 | 1017.4 |
| 20260906035908 | 74 | 75 | 0.0 | 0.9 | 0.00 | 0.00 | 0.00 | 91 | 1017.3 |
| 20260906035409 | 74 | 8 | 0.0 | 0.9 | 0.00 | 0.00 | 0.00 | 91 | 1017.2 |
| 20260906034909 | 74 | 306 | 0.0 | 0.9 | 0.00 | 0.00 | 0.00 | 91 | 1017.2 |
| 20260906034410 | 74 | 347 | 0.9 | 1.7 | 0.00 | 0.00 | 0.00 | 90 | 1017.2 |
| 20260906033908 | 74 | 359 | 0.9 | 1.7 | 0.00 | 0.00 | 0.00 | 90 | 1017.2 |
| 20260906033409 | 74 | 257 | 0.0 | 0.9 | 0.00 | 0.00 | 0.00 | 90 | 1017.2 |
| 20260906032908 | 74 | 76 | 0.9 | 2.6 | 0.00 | 0.00 | 0.00 | 90 | 1017.1 |
| 20260906032408 | 74 | 78 | 0.9 | 2.6 | 0.00 | 0.00 | 0.00 | 90 | 1017.1 |
| 20260906031908 | 75 | 90 | 1.7 | 4.3 | 0.00 | 0.00 | 0.00 | 90 | 1017.0 |
| 20260906031409 | 75 | 26 | 0.9 | 1.7 | 0.00 | 0.00 | 0.00 | 90 | 1017.0 |
| 20260906030909 | 75 | 72 | 0.0 | 0.9 | 0.00 | 0.00 | 0.00 | 89 | 1017.0 |
| 20260906030408 | 75 | 24 | 0.9 | 1.7 | 0.00 | 0.00 | 0.00 | 89 | 1016.9 |
| 20260906025909 | 75 | 80 | 1.7 | 3.5 | 0.00 | 0.00 | 0.00 | 89 | 1016.8 |
| 20260906025415 | 75 | 89 | 0.9 | 2.6 | 0.00 | 0.00 | 0.00 | 88 | 1016.8 |
| 20260906024908 | 75 | 68 | 1.7 | 5.2 | 0.00 | 0.00 | 0.00 | 88 | 1016.7 |
| 20260906024409 | 75 | 17 | 0.9 | 1.7 | 0.00 | 0.00 | 0.00 | 89 | 1016.6 |
| 20260906023908 | 75 | 61 | 0.9 | 1.7 | 0.00 | 0.00 | 0.00 | 89 | 1016.6 |
| 20260906023408 | 75 | 10 | 0.9 | 1.7 | 0.00 | 0.00 | 0.00 | 89 | 1016.5 |
| 20260906022908 | 75 | 20 | 0.9 | 1.7 | 0.00 | 0.00 | 0.00 | 89 | 1016.5 |
| 20260906022408 | 75 | 16 | 0.0 | 0.9 | 0.00 | 0.00 | 0.00 | 89 | 1016.4 |
| 20260906021908 | 75 | 38 | 0.0 | 0.9 | 0.00 | 0.00 | 0.00 | 89 | 1016.3 |
| 20260906021408 | 76 | 308 | 0.0 | 0.9 | 0.00 | 0.00 | 0.00 | 89 | 1016.3 |
| 20260906020908 | 76 | 11 | 0.9 | 1.7 | 0.00 | 0.00 | 0.00 | 89 | 1016.2 |
| 20260906020408 | 76 | 321 | 0.0 | 0.9 | 0.00 | 0.00 | 0.00 | 89 | 1016.1 |
| 20260906015908 | 76 | 338 | 0.9 | 0.9 | 0.00 | 0.00 | 0.00 | 88 | 1016.1 |
| 20260906015408 | 76 | 354 | 0.0 | 0.9 | 0.00 | 0.00 | 0.00 | 89 | 1016.0 |
| 20260906014909 | 76 | 285 | 0.0 | 0.0 | 0.00 | 0.00 | 0.00 | 88 | 1015.9 |
| 20260906014408 | 76 | 329 | 0.0 | 0.9 | 0.00 | 0.00 | 0.00 | 88 | 1015.8 |
| 20260906013911 | 76 | 360 | 0.9 | 1.7 | 0.00 | 0.00 | 0.00 | 88 | 1015.8 |
| 20260906013409 | 76 | 343 | 0.9 | 1.7 | 0.00 | 0.00 | 0.00 | 88 | 1015.7 |
| 20260906012908 | 76 | 360 | 0.9 | 1.7 | 0.00 | 0.00 | 0.00 | 88 | 1015.6 |
| 20260906012408 | 76 | 1 | 0.9 | 1.7 | 0.00 | 0.00 | 0.00 | 88 | 1015.6 |
| 20260906011909 | 76 | 337 | 0.0 | 0.9 | 0.00 | 0.00 | 0.00 | 88 | 1015.6 |
| 20260906011408 | 76 | 346 | 0.9 | 1.7 | 0.00 | 0.00 | 0.00 | 88 | 1015.6 |
| 20260906010908 | 76 | 277 | 0.0 | 0.0 | 0.00 | 0.00 | 0.00 | 87 | 1015.6 |
| 20260906010408 | 77 | 33 | 0.9 | 1.7 | 0.00 | 0.00 | 0.00 | 87 | 1015.6 |
| 20260906005910 | 77 | 8 | 1.7 | 2.6 | 0.00 | 0.00 | 0.00 | 87 | 1015.7 |
| 20260906005411 | 77 | 360 | 0.9 | 2.6 | 0.00 | 0.00 | 0.00 | 86 | 1015.7 |
| 20260906004908 | 77 | 16 | 0.9 | 1.7 | 0.00 | 0.00 | 0.00 | 86 | 1015.6 |
| 20260906004408 | 77 | 345 | 0.9 | 1.7 | 0.00 | 0.00 | 0.00 | 86 | 1015.5 |
| 20260906003908 | 78 | 330 | 0.0 | 0.9 | 0.00 | 0.00 | 0.00 | 85 | 1015.5 |
| 20260906003408 | 78 | 304 | 0.9 | 1.7 | 0.00 | 0.00 | 0.00 | 84 | 1015.4 |
| 20260906002908 | 78 | 67 | 0.0 | 0.0 | 0.00 | 0.00 | 0.00 | 84 | 1015.3 |
| 20260906002408 | 78 | 58 | 0.0 | 0.9 | 0.00 | 0.00 | 0.00 | 83 | 1015.4 |
| 20260906001908 | 79 | 346 | 0.0 | 0.9 | 0.00 | 0.00 | 0.00 | 83 | 1015.4 |
| 20260906001408 | 79 | 343 | 0.0 | 0.9 | 0.00 | 0.00 | 0.00 | 82 | 1015.4 |
| 20260906000909 | 79 | 12 | 0.9 | 1.7 | 0.00 | 0.00 | 0.00 | 82 | 1015.4 |
| 20260906000410 | 79 | 113 | 0.9 | 2.6 | 0.00 | 0.00 | 0.00 | 81 | 1015.3 |
| 20260905235909 | 79 | 28 | 0.0 | 1.7 | 0.00 | 0.00 | 0.00 | 81 | 1015.4 |
| 20260905235408 | 80 | 360 | 0.0 | 0.0 | 0.00 | 0.00 | 0.00 | 81 | 1015.4 |
| 20260905234909 | 80 | 58 | 0.0 | 0.9 | 0.00 | 0.00 | 0.00 | 81 | 1015.4 |
| 20260905234408 | 80 | 351 | 0.9 | 1.7 | 0.00 | 0.00 | 0.00 | 82 | 1015.4 |
| 20260905233909 | 80 | 44 | 0.0 | 1.7 | 0.00 | 0.00 | 0.00 | 81 | 1015.4 |
| 20260905233408 | 81 | 269 | 0.0 | 0.0 | 0.00 | 0.00 | 0.00 | 80 | 1015.3 |
| 20260905232908 | 81 | 291 | 0.0 | 0.9 | 0.00 | 0.00 | 0.00 | 79 | 1015.3 |
| 20260905232408 | 81 | 52 | 0.0 | 0.9 | 0.00 | 0.00 | 0.00 | 80 | 1015.3 |
| 20260905231908 | 81 | 348 | 0.9 | 1.7 | 0.00 | 0.00 | 0.00 | 80 | 1015.3 |
| 20260905231410 | 82 | 7 | 0.0 | 0.9 | 0.00 | 0.00 | 0.00 | 80 | 1015.3 |
| 20260905230908 | 82 | 36 | 0.9 | 1.7 | 0.00 | 0.00 | 0.00 | 79 | 1015.3 |
| 20260905230409 | 82 | 7 | 0.9 | 1.7 | 0.00 | 0.00 | 0.00 | 80 | 1015.2 |
| 20260905225909 | 82 | 142 | 0.9 | 2.6 | 0.00 | 0.00 | 0.00 | 79 | 1015.1 |
| 20260905225408 | 82 | 17 | 0.9 | 1.7 | 0.00 | 0.00 | 0.00 | 79 | 1015.0 |
| 20260905224909 | 82 | 24 | 1.7 | 1.7 | 0.00 | 0.00 | 0.00 | 79 | 1014.9 |
| 20260905224408 | 83 | 111 | 1.7 | 3.5 | 0.00 | 0.00 | 0.00 | 78 | 1014.7 |
| 20260905223908 | 83 | 21 | 0.9 | 1.7 | 0.00 | 0.00 | 0.00 | 78 | 1014.7 |
| 20260905223408 | 84 | 84 | 4.3 | 8.7 | 0.00 | 0.00 | 0.00 | 76 | 1014.6 |
| 20260905222908 | 85 | 89 | 0.9 | 2.6 | 0.00 | 0.00 | 0.00 | 76 | 1014.5 |
| 20260905222408 | 85 | 61 | 2.6 | 6.1 | 0.00 | 0.00 | 0.00 | 75 | 1014.3 |
| 20260905221908 | 85 | 101 | 3.5 | 6.1 | 0.00 | 0.00 | 0.00 | 75 | 1014.2 |
| 20260905221408 | 85 | 73 | 2.6 | 6.1 | 0.00 | 0.00 | 0.00 | 75 | 1014.2 |
| 20260905220908 | 86 | 26 | 0.9 | 1.7 | 0.00 | 0.00 | 0.00 | 73 | 1014.4 |
| 20260905220409 | 86 | 19 | 1.7 | 2.6 | 0.00 | 0.00 | 0.00 | 74 | 1014.4 |
| 20260905215908 | 86 | 100 | 1.7 | 2.6 | 0.00 | 0.00 | 0.00 | 74 | 1014.4 |
| 20260905215408 | 86 | 70 | 0.9 | 2.6 | 0.00 | 0.00 | 0.00 | 74 | 1014.3 |
| 20260905214908 | 86 | 1 | 1.7 | 2.6 | 0.00 | 0.00 | 0.00 | 73 | 1014.2 |
| 20260905214408 | 87 | 30 | 1.7 | 3.5 | 0.00 | 0.00 | 0.00 | 72 | 1014.3 |
| 20260905213908 | 87 | 93 | 3.5 | 7.0 | 0.00 | 0.00 | 0.00 | 72 | 1014.2 |
| 20260905213408 | 87 | 42 | 1.7 | 4.3 | 0.00 | 0.00 | 0.00 | 73 | 1014.2 |
| 20260905212909 | 87 | 57 | 1.7 | 5.2 | 0.00 | 0.00 | 0.00 | 73 | 1014.3 |
| 20260905212409 | 87 | 87 | 1.7 | 6.1 | 0.00 | 0.00 | 0.00 | 73 | 1014.3 |
| 20260905211908 | 87 | 96 | 0.0 | 0.9 | 0.00 | 0.00 | 0.00 | 73 | 1014.4 |
| 20260905211408 | 86 | 41 | 1.7 | 3.5 | 0.00 | 0.00 | 0.00 | 73 | 1014.5 |
| 20260905210909 | 86 | 87 | 0.9 | 1.7 | 0.00 | 0.00 | 0.00 | 74 | 1014.6 |
| 20260905210409 | 86 | 130 | 0.9 | 1.7 | 0.00 | 0.00 | 0.00 | 74 | 1014.7 |
| 20260905205908 | 87 | 98 | 3.5 | 5.2 | 0.00 | 0.00 | 0.00 | 73 | 1014.7 |
| 20260905205408 | 86 | 51 | 0.0 | 1.7 | 0.00 | 0.00 | 0.00 | 74 | 1014.9 |
| 20260905204908 | 87 | 80 | 1.7 | 3.5 | 0.00 | 0.00 | 0.00 | 73 | 1015.0 |
| 20260905204408 | 87 | 69 | 1.7 | 2.6 | 0.00 | 0.00 | 0.00 | 73 | 1015.0 |
| 20260905203908 | 87 | 21 | 1.7 | 3.5 | 0.00 | 0.00 | 0.00 | 73 | 1015.1 |
| 20260905203408 | 87 | 11 | 3.5 | 6.1 | 0.00 | 0.00 | 0.00 | 71 | 1015.1 |
| 20260905202908 | 88 | 86 | 2.6 | 3.5 | 0.00 | 0.00 | 0.00 | 71 | 1015.1 |
| 20260905202408 | 88 | 49 | 1.7 | 3.5 | 0.00 | 0.00 | 0.00 | 70 | 1015.2 |
| 20260905201908 | 88 | 6 | 3.5 | 4.3 | 0.00 | 0.00 | 0.00 | 70 | 1015.3 |
| 20260905201408 | 88 | 9 | 3.5 | 5.2 | 0.00 | 0.00 | 0.00 | 71 | 1015.3 |
| 20260905200908 | 88 | 18 | 1.7 | 3.5 | 0.00 | 0.00 | 0.00 | 71 | 1015.4 |
| 20260905200411 | 88 | 19 | 2.6 | 5.2 | 0.00 | 0.00 | 0.00 | 71 | 1015.4 |
| 20260905195909 | 88 | 15 | 4.3 | 6.1 | 0.00 | 0.00 | 0.00 | 71 | 1015.4 |
| 20260905195409 | 88 | 25 | 2.6 | 5.2 | 0.00 | 0.00 | 0.00 | 71 | 1015.4 |
| 20260905194909 | 88 | 175 | 1.7 | 2.6 | 0.00 | 0.00 | 0.00 | 72 | 1015.5 |
| 20260905194408 | 88 | 16 | 3.5 | 4.3 | 0.00 | 0.00 | 0.00 | 70 | 1015.7 |
| 20260905193909 | 88 | 356 | 0.9 | 2.6 | 0.00 | 0.00 | 0.00 | 72 | 1015.7 |
| 20260905193408 | 87 | 92 | 1.7 | 4.3 | 0.00 | 0.00 | 0.00 | 73 | 1015.7 |
| 20260905192908 | 87 | 26 | 1.7 | 7.0 | 0.00 | 0.00 | 0.00 | 73 | 1015.6 |
| 20260905192408 | 87 | 17 | 3.5 | 5.2 | 0.00 | 0.00 | 0.00 | 73 | 1015.6 |
| 20260905191910 | 87 | 360 | 3.5 | 4.3 | 0.00 | 0.00 | 0.00 | 74 | 1015.7 |
| 20260905191408 | 87 | 14 | 4.3 | 6.1 | 0.00 | 0.00 | 0.00 | 73 | 1015.8 |
| 20260905190909 | 87 | 10 | 2.6 | 4.3 | 0.00 | 0.00 | 0.00 | 75 | 1015.9 |
| 20260905190408 | 87 | 20 | 2.6 | 4.3 | 0.00 | 0.00 | 0.00 | 74 | 1015.8 |
| 20260905185908 | 88 | 92 | 0.9 | 3.5 | 0.00 | 0.00 | 0.00 | 75 | 1016.0 |
| 20260905185408 | 88 | 13 | 2.6 | 4.3 | 0.00 | 0.00 | 0.00 | 74 | 1016.0 |
| 20260905184908 | 89 | 24 | 2.6 | 5.2 | 0.00 | 0.00 | 0.00 | 73 | 1015.9 |
| 20260905184408 | 89 | 23 | 0.9 | 3.5 | 0.00 | 0.00 | 0.00 | 73 | 1015.9 |
| 20260905183909 | 89 | 90 | 0.0 | 1.7 | 0.00 | 0.00 | 0.00 | 74 | 1015.9 |
| 20260905183409 | 89 | 105 | 1.7 | 6.1 | 0.00 | 0.00 | 0.00 | 72 | 1016.0 |
| 20260905182909 | 89 | 2 | 2.6 | 6.1 | 0.00 | 0.00 | 0.00 | 71 | 1016.1 |
| 20260905182409 | 88 | 15 | 1.7 | 4.3 | 0.00 | 0.00 | 0.00 | 73 | 1016.2 |
| 20260905181911 | 88 | 2 | 2.6 | 3.5 | 0.00 | 0.00 | 0.00 | 73 | 1016.2 |
| 20260905181408 | 88 | 20 | 2.6 | 4.3 | 0.00 | 0.00 | 0.00 | 73 | 1016.2 |
| 20260905180908 | 88 | 19 | 2.6 | 3.5 | 0.00 | 0.00 | 0.00 | 73 | 1016.2 |
| 20260905180410 | 89 | 8 | 1.7 | 3.5 | 0.00 | 0.00 | 0.00 | 71 | 1016.1 |
| 20260905175908 | 88 | 346 | 1.7 | 2.6 | 0.00 | 0.00 | 0.00 | 72 | 1016.1 |
| 20260905175409 | 88 | 357 | 0.0 | 0.9 | 0.00 | 0.00 | 0.00 | 72 | 1016.1 |
| 20260905174908 | 88 | 249 | 0.0 | 0.0 | 0.00 | 0.00 | 0.00 | 74 | 1016.0 |
| 20260905174408 | 87 | 55 | 0.9 | 1.7 | 0.00 | 0.00 | 0.00 | 73 | 1015.9 |
| 20260905173908 | 88 | 20 | 0.9 | 1.7 | 0.00 | 0.00 | 0.00 | 73 | 1015.9 |
| 20260905173409 | 88 | 360 | 1.7 | 3.5 | 0.00 | 0.00 | 0.00 | 73 | 1016.0 |
| 20260905172908 | 88 | 74 | 0.0 | 1.7 | 0.00 | 0.00 | 0.00 | 72 | 1016.0 |
| 20260905172408 | 88 | 86 | 3.5 | 7.0 | 0.00 | 0.00 | 0.00 | 72 | 1015.9 |
| 20260905171908 | 87 | 16 | 0.9 | 2.6 | 0.00 | 0.00 | 0.00 | 72 | 1015.9 |
| 20260905171409 | 87 | 104 | 0.9 | 2.6 | 0.00 | 0.00 | 0.00 | 73 | 1015.9 |
| 20260905170908 | 87 | 29 | 1.7 | 3.5 | 0.00 | 0.00 | 0.00 | 73 | 1015.9 |
| 20260905170409 | 87 | 9 | 0.9 | 2.6 | 0.00 | 0.00 | 0.00 | 74 | 1016.0 |
| 20260905165908 | 86 | 28 | 0.9 | 2.6 | 0.00 | 0.00 | 0.00 | 75 | 1016.0 |
| 20260905165408 | 86 | 17 | 0.9 | 1.7 | 0.00 | 0.00 | 0.00 | 75 | 1016.1 |
| 20260905164908 | 86 | 89 | 0.9 | 3.5 | 0.00 | 0.00 | 0.00 | 75 | 1016.1 |
| 20260905164408 | 86 | 23 | 0.9 | 2.6 | 0.00 | 0.00 | 0.00 | 75 | 1016.2 |
| 20260905163909 | 87 | 41 | 1.7 | 2.6 | 0.00 | 0.00 | 0.00 | 74 | 1016.2 |
| 20260905163408 | 87 | 47 | 0.9 | 1.7 | 0.00 | 0.00 | 0.00 | 75 | 1016.1 |
| 20260905162908 | 86 | 30 | 0.9 | 0.9 | 0.00 | 0.00 | 0.00 | 74 | 1016.2 |
| 20260905162408 | 86 | 65 | 1.7 | 2.6 | 0.00 | 0.00 | 0.00 | 75 | 1016.2 |
| 20260905161909 | 85 | 360 | 0.0 | 0.9 | 0.00 | 0.00 | 0.00 | 76 | 1016.2 |
| 20260905161409 | 85 | 56 | 0.9 | 1.7 | 0.00 | 0.00 | 0.00 | 76 | 1016.2 |
| 20260905160908 | 85 | 1 | 1.7 | 2.6 | 0.00 | 0.00 | 0.00 | 76 | 1016.1 |
| 20260905160408 | 86 | 2 | 1.7 | 2.6 | 0.00 | 0.00 | 0.00 | 75 | 1016.1 |
| 20260905155908 | 86 | 81 | 0.9 | 2.6 | 0.00 | 0.00 | 0.00 | 74 | 1016.1 |
| 20260905155408 | 86 | 37 | 1.7 | 2.6 | 0.00 | 0.00 | 0.00 | 75 | 1016.0 |
| 20260905154908 | 85 | 57 | 1.7 | 3.5 | 0.00 | 0.00 | 0.00 | 75 | 1016.0 |
| 20260905154408 | 85 | 6 | 2.6 | 3.5 | 0.00 | 0.00 | 0.00 | 74 | 1016.1 |
| 20260905153908 | 86 | 6 | 2.6 | 3.5 | 0.00 | 0.00 | 0.00 | 74 | 1016.1 |
| 20260905153409 | 86 | 23 | 1.7 | 4.3 | 0.00 | 0.00 | 0.00 | 73 | 1016.0 |
| 20260905152908 | 86 | 28 | 0.9 | 1.7 | 0.00 | 0.00 | 0.00 | 73 | 1016.0 |
| 20260905152408 | 85 | 341 | 0.0 | 1.7 | 0.00 | 0.00 | 0.00 | 74 | 1015.9 |
| 20260905151908 | 85 | 18 | 2.6 | 3.5 | 0.00 | 0.00 | 0.00 | 73 | 1015.8 |
| 20260905151409 | 85 | 360 | 0.9 | 2.6 | 0.00 | 0.00 | 0.00 | 74 | 1015.9 |
| 20260905150908 | 84 | 351 | 0.9 | 1.7 | 0.00 | 0.00 | 0.00 | 74 | 1015.8 |
| 20260905150408 | 84 | 48 | 0.9 | 1.7 | 0.00 | 0.00 | 0.00 | 75 | 1015.7 |
| 20260905145908 | 84 | 60 | 1.7 | 3.5 | 0.00 | 0.00 | 0.00 | 75 | 1015.7 |
| 20260905145409 | 84 | 8 | 0.9 | 2.6 | 0.00 | 0.00 | 0.00 | 76 | 1015.6 |
| 20260905144912 | 84 | 13 | 1.7 | 4.3 | 0.00 | 0.00 | 0.00 | 75 | 1015.5 |
| 20260905144409 | 84 | 10 | 0.9 | 1.7 | 0.00 | 0.00 | 0.00 | 76 | 1015.5 |
| 20260905143909 | 84 | 24 | 0.9 | 1.7 | 0.00 | 0.00 | 0.00 | 76 | 1015.5 |
| 20260905143408 | 83 | 355 | 0.0 | 1.7 | 0.00 | 0.00 | 0.00 | 77 | 1015.4 |
| 20260905142908 | 82 | 95 | 0.0 | 0.9 | 0.00 | 0.00 | 0.00 | 78 | 1015.3 |
| 20260905142408 | 82 | 79 | 0.9 | 1.7 | 0.00 | 0.00 | 0.00 | 79 | 1015.3 |
| 20260905141908 | 81 | 35 | 0.0 | 1.7 | 0.00 | 0.00 | 0.00 | 80 | 1015.4 |
| 20260905141409 | 80 | 25 | 0.9 | 1.7 | 0.00 | 0.00 | 0.00 | 81 | 1015.4 |
| 20260905140908 | 79 | 357 | 0.9 | 1.7 | 0.00 | 0.00 | 0.00 | 83 | 1015.5 |
| 20260905140409 | 79 | 359 | 1.7 | 2.6 | 0.00 | 0.00 | 0.00 | 82 | 1015.6 |
| 20260905135908 | 78 | 342 | 1.7 | 1.7 | 0.00 | 0.00 | 0.00 | 83 | 1015.6 |
| 20260905135410 | 77 | 353 | 0.0 | 0.9 | 0.00 | 0.00 | 0.00 | 85 | 1015.7 |
| 20260905134908 | 77 | 15 | 0.9 | 1.7 | 0.00 | 0.00 | 0.00 | 86 | 1015.6 |
| 20260905134414 | 76 | 10 | 0.9 | 1.7 | 0.00 | 0.00 | 0.00 | 87 | 1015.4 |
| 20260905133908 | 75 | 23 | 1.7 | 2.6 | 0.00 | 0.00 | 0.00 | 88 | 1015.3 |
| 20260905133409 | 75 | 344 | 1.7 | 3.5 | 0.00 | 0.00 | 0.00 | 89 | 1015.2 |
| 20260905132908 | 74 | 14 | 1.7 | 1.7 | 0.00 | 0.00 | 0.00 | 90 | 1015.0 |
| 20260905132408 | 74 | 15 | 0.9 | 1.7 | 0.00 | 0.00 | 0.00 | 90 | 1015.0 |
| 20260905131908 | 73 | 360 | 1.7 | 1.7 | 0.00 | 0.00 | 0.00 | 91 | 1014.9 |
| 20260905131409 | 73 | 325 | 0.9 | 1.7 | 0.00 | 0.00 | 0.00 | 92 | 1014.9 |
| 20260905130908 | 73 | 338 | 1.7 | 2.6 | 0.00 | 0.00 | 0.00 | 93 | 1014.9 |
| 20260905130409 | 73 | 333 | 1.7 | 2.6 | 0.00 | 0.00 | 0.00 | 93 | 1015.0 |
| 20260905125909 | 73 | 339 | 0.9 | 1.7 | 0.00 | 0.00 | 0.00 | 93 | 1014.7 |
| 20260905125410 | 72 | 316 | 0.0 | 0.9 | 0.00 | 0.00 | 0.00 | 94 | 1014.7 |
| 20260905124908 | 72 | 354 | 1.7 | 1.7 | 0.00 | 0.00 | 0.00 | 94 | 1014.6 |
| 20260905124409 | 72 | 352 | 0.9 | 1.7 | 0.00 | 0.00 | 0.00 | 95 | 1014.5 |
| 20260905123908 | 72 | 337 | 0.9 | 1.7 | 0.00 | 0.00 | 0.00 | 95 | 1014.5 |
| 20260905123408 | 72 | 337 | 0.9 | 1.7 | 0.00 | 0.00 | 0.00 | 95 | 1014.5 |
| 20260905122908 | 71 | 355 | 1.7 | 2.6 | 0.00 | 0.00 | 0.00 | 96 | 1014.4 |
| 20260905122408 | 71 | 354 | 1.7 | 2.6 | 0.00 | 0.00 | 0.00 | 96 | 1014.4 |
| 20260905121908 | 71 | 330 | 1.7 | 1.7 | 0.00 | 0.00 | 0.00 | 96 | 1014.3 |
| 20260905121409 | 71 | 360 | 1.7 | 2.6 | 0.00 | 0.00 | 0.00 | 97 | 1014.2 |
| 20260905120909 | 71 | 349 | 1.7 | 1.7 | 0.00 | 0.00 | 0.00 | 97 | 1014.2 |
| 20260905120408 | 71 | 352 | 1.7 | 1.7 | 0.00 | 0.00 | 0.00 | 97 | 1014.2 |
| 20260905115908 | 71 | 312 | 0.9 | 1.7 | 0.00 | 0.00 | 0.00 | 97 | 1014.1 |
| 20260905115408 | 71 | 299 | 0.0 | 0.9 | 0.00 | 0.00 | 0.00 | 97 | 1014.1 |
| 20260905114909 | 71 | 278 | 0.0 | 0.9 | 0.00 | 0.00 | 0.00 | 97 | 1014.1 |
| 20260905114408 | 71 | 344 | 0.9 | 1.7 | 0.00 | 0.00 | 0.00 | 97 | 1014.1 |
| 20260905113908 | 71 | 336 | 1.7 | 2.6 | 0.00 | 0.00 | 0.00 | 97 | 1014.0 |
| 20260905113408 | 71 | 338 | 2.6 | 3.5 | 0.00 | 0.00 | 0.00 | 97 | 1014.0 |
| 20260905112908 | 71 | 339 | 1.7 | 2.6 | 0.00 | 0.00 | 0.00 | 97 | 1013.9 |
| 20260905112409 | 71 | 350 | 1.7 | 3.5 | 0.00 | 0.00 | 0.00 | 97 | 1013.8 |
| 20260905111909 | 71 | 325 | 1.7 | 2.6 | 0.00 | 0.00 | 0.00 | 97 | 1013.6 |
| 20260905111409 | 71 | 324 | 0.9 | 1.7 | 0.00 | 0.00 | 0.00 | 97 | 1013.6 |
| 20260905110909 | 71 | 324 | 0.0 | 0.9 | 0.00 | 0.00 | 0.00 | 97 | 1013.7 |
| 20260905110410 | 71 | 306 | 0.9 | 1.7 | 0.00 | 0.00 | 0.00 | 97 | 1013.9 |
| 20260905105909 | 71 | 346 | 1.7 | 1.7 | 0.00 | 0.00 | 0.00 | 97 | 1013.9 |
| 20260905105408 | 71 | 320 | 1.7 | 1.7 | 0.00 | 0.00 | 0.00 | 97 | 1014.0 |
| 20260905104908 | 71 | 316 | 0.9 | 1.7 | 0.00 | 0.00 | 0.00 | 97 | 1013.8 |
| 20260905104408 | 71 | 297 | 0.0 | 0.9 | 0.00 | 0.00 | 0.00 | 97 | 1013.8 |
| 20260905103909 | 71 | 314 | 0.0 | 0.9 | 0.00 | 0.00 | 0.00 | 97 | 1013.7 |